Regional Weather Roundup
Issued by NWS

Home | Current Version | Previous Version | Graphics & Text | Print | Product List | Glossary On
Versions: 1 2 3 4 5 6 7 8 9 10 11 12 13 14 15 16 17 18 19 20 21 22 23 24 25 26 27 28 29 30 31 32 33 34 35 36 37 38 39 40 41 42 43 44 45 46 47 48 49 50
000
ASUS43 KMPX 212010
RWRMN
WEATHER ROUNDUP FOR MINNESOTA
NATIONAL WEATHER SERVICE TWIN CITIES/CHANHASSEN MN
300 PM CDT TUE OCT 21 2014


NOTE: "FAIR" INDICATES FEW OR NO CLOUDS BELOW 12,000 FEET WITH NO
SIGNIFICANT WEATHER AND/OR OBSTRUCTIONS TO VISIBILITY. N/A MEANS
CURRENT SKY AND/OR WEATHER CONDITIONS ARE NOT AVAILABLE.

MNZ060>063-068>070-212100-
   Twin Cities Metro

CITY           SKY/WX    TMP DP  RH WIND       PRES   REMARKS
TWIN CITIES    SUNNY     56  40  55 E9        30.16F
ST PAUL        SUNNY     57  41  55 SE10      30.17F
CRYSTAL        SUNNY     58  39  49 E8        30.14F
BLAINE         SUNNY     57  41  54 SE6       30.16F
LAKEVILLE      SUNNY     57  41  54 SE7       30.15S
EDEN PRAIRIE   SUNNY     58  41  53 SE8       30.13F
SOUTH ST PAUL  SUNNY     57  39  50 E6        30.16F
LAKE ELMO      FAIR      55  41  58 SE5       30.17F
$$
MNZ001>005-007-008-013>017-022>024-027-028-212100-
   Northwest Minnesota

CITY           SKY/WX    TMP DP  RH WIND       PRES   REMARKS
BEMIDJI        SUNNY     55  40  57 SE16G24   30.04F
HALLOCK        SUNNY     63  39  42 SE23G29   29.89F
ROSEAU         SUNNY     59  43  55 SE20      29.98F
WARROAD        SUNNY     57  43  58 SE13G21   30.01F
THIEF RVR FALL SUNNY     61  39  44 SE20      29.95F
CROOKSTON      SUNNY     64  41  42 S23G31    29.92F
FOSSTON        SUNNY     63  37  39 SE14G21   29.99F
DETROIT LAKES  SUNNY     59  41  51 SE22G28   30.00S
MOORHEAD       SUNNY     66  37  34 SE23G31   29.93F
PARK RAPIDS    SUNNY     57  38  48 SE22      30.05F
MAHNOMEN       FAIR      61  40  45 SE17G26   29.97F
$$
MNZ006-009>011-018-025>026-212100-
   North Central Minnesota

CITY           SKY/WX    TMP DP  RH WIND       PRES   REMARKS
BAUDETTE       SUNNY     55  38  52 SE13G23   30.05F
FLAG ISLAND    SUNNY     52  41  66 S17       30.02F
INTL FALLS     SUNNY     49  35  58 SE15      30.12F
WASKISH        SUNNY     55  39  54 E13G21    30.06F
BIG FORK       SUNNY     52  37  58 SE10G17   30.12F
LONGVILLE      SUNNY     55  39  54 SE12G17   30.09F
GRAND RAPIDS   SUNNY     50  36  57 SE15G21   30.14F
CRANE LAKE     CLOUDY    43  36  75 SE5       30.20F
ORR            SUNNY     48  34  57 SE10G17   30.14F
COOK           SUNNY     46  36  66 SE12      30.17F
WALKER         FAIR      55  38  54 SE9G16    30.07F
$$
MNZ012-019>021-037-212100-
   Northeast Minnesota

CITY           SKY/WX    TMP DP  RH WIND       PRES   REMARKS
DULUTH         MOSUNNY   47  35  63 E12       30.20F
ELY            CLOUDY    41  34  75 SE12      30.21F
HIBBING        SUNNY     48  34  58 SE17      30.18S
EVELETH        PTSUNNY   43  34  70 SE12      30.19F
DULUTH HARBOR  MOSUNNY   48  39  71 NE17      30.23F
TWO HARBORS    CLOUDY    46  28  49 E13       30.22F
SILVER BAY     PTSUNNY   43  36  75 E7        30.24S
GRAND MARAIS     N/A     43  33  68 E7        30.29S
G MARAIS ARPRT MOSUNNY   39  28  65 SE5       30.25R
$$
MNZ029>031-032-039>041-046>048-054>057-064-212100-
   West Central Minnesota

CITY           SKY/WX    TMP DP  RH WIND       PRES   REMARKS
FERGUS FALLS   SUNNY     63  37  39 SE21G26   29.99F
WHEATON        SUNNY     64  41  42 SE26      29.96F
MORRIS         SUNNY     64  43  45 SE24      29.99F
ALEXANDRIA     SUNNY     59  40  49 SE23G31   30.05F
ELBOW LAKE     FAIR      62  41  45 SE23G30   29.99F
WADENA         SUNNY     57  39  51 SE18      30.04F
GLENWOOD       SUNNY     61  41  48 SE18G24   30.06F
APPLETON       SUNNY     68  37  32 SE18G28   29.99F
BENSON         SUNNY     64  41  42 S16G24    30.02F
ORTONVILLE     SUNNY     68  41  37 SE23      29.96F
MADISON        SUNNY     73  39  29 SE20      29.98F
WILLMAR        FAIR      64  37  36 SE20G26   30.07F
$$
MNZ033>034-036-042>043-049>051-058-059-212100-
   Central Minnesota

CITY           SKY/WX    TMP DP  RH WIND       PRES   REMARKS
ST CLOUD       SUNNY     59  39  47 SE16      30.12F
SAUK CENTRE    FAIR      59  41  51 SE20      30.08F
PAYNESVILLE    SUNNY     57  40  52 E13       30.09F
AITKIN         SUNNY     57  39  51 SE8G16    30.11F
PINE RIVER     SUNNY     54  41  62 SE16      30.12F
BRAINERD       SUNNY     53  39  59 VRB7G18   30.11F
STAPLES          N/A     55  39  54 SE14      30.07F
LONG PRAIRIE   FAIR      57  39  51 E14G20    30.08F
LITTLE FALLS   SUNNY     55  37  50 E10G20    30.11F
LITCHFIELD     SUNNY     63  43  48 SE13G18   30.10F
BUFFALO        SUNNY     57  40  52 E10G18    30.14F
MAPLE LAKE     SUNNY     58  43  57 SE10G16   30.14F
$$
MNZ037-044-045-052-053-212100-
   East Central Minnesota

CITY           SKY/WX    TMP DP  RH WIND       PRES   REMARKS
PRINCETON      SUNNY     57  39  51 E9        30.14F
MORA           SUNNY     54  36  50 SE8       30.17F
CAMBRIDGE      SUNNY     57  41  54 SE8       30.14F
RUSH CITY      MOSUNNY   56  38  51 E6        30.17F
MOOSE LAKE     SUNNY     54  34  47 E6        30.15F
HINCKLEY       FAIR      55  37  50 E9        30.16F
CLOQUET        SUNNY     46  36  66 E10G16    30.18F
MCGREGOR       SUNNY     54  37  54 SE9       30.15F
$$
MNZ071>073-080-081-089-090-097-098-212100-
   Southwest Minnesota

CITY           SKY/WX    TMP DP  RH WIND       PRES   REMARKS
MONTEVIDEO     SUNNY     66  41  39 S18G25    30.02F
GRANITE FALLS  SUNNY     66  40  38 SE17G25   30.04F
CANBY          SUNNY     73  41  30 SE17G24   29.99F
MARSHALL       SUNNY     72  41  33 S20G25    30.01F
REDWOOD FALLS  SUNNY     66  40  38 SE16      30.06F
OLIVIA         SUNNY     64  39  39 SE15G22   30.06F
PIPESTONE      SUNNY     72  37  28 S16G22    30.00F
WINDOM         SUNNY     68  37  32 SE13G18   30.06F
WORTHINGTON    SUNNY     70  41  35 SE12      30.06S
JACKSON        SUNNY     68  37  32 SE12G17   30.08F
TRACY          SUNNY     71  42  35 S8        30.03F
SLAYTON        SUNNY     70  37  30 SE15      30.04F
$$
MNZ065>067-074>077-082>085-091>093-212100-
   South Central Minnesota

CITY           SKY/WX    TMP DP  RH WIND       PRES   REMARKS
MANKATO        SUNNY     63  39  42 SE16      30.11F
NEW ULM        SUNNY     64  43  45 SE13      30.08F
ST JAMES       SUNNY     68  37  32 SE14      30.09F
FAIRMONT       SUNNY     64  39  39 SE13      30.09F
GLENCOE        SUNNY     62  44  50 SE13G22   30.11F
FARIBAULT      SUNNY     61  43  51 SE7       30.14F
OWATONNA       SUNNY     61  39  44 SE12      30.14S
WASECA         SUNNY     59  36  41 SE8       30.14F
ALBERT LEA     SUNNY     61  39  44 SE8       30.13F
$$
MNZ078>079-086>088-094>096-212100-
   Southeast Minnesota

CITY           SKY/WX    TMP DP  RH WIND       PRES   REMARKS
ROCHESTER      SUNNY     56  41  57 S7        30.17F
RED WING       SUNNY     57  37  47 SE8       30.17S
STANTON        SUNNY     59  41  52 SE8       30.14F
DODGE CENTER   SUNNY     57  43  58 E7        30.15F
WINONA         SUNNY     55  39  54 SE7       30.19F
AUSTIN         SUNNY     57  41  54 SE5       30.14F
PRESTON        SUNNY     55  39  54 CALM      30.17F
$$
ABBREVIATIONS USED IN REMARKS
   TC - TEMPERATURES IN CELSIUS
  WCI - WIND CHILL INDEX
   HX - HEAT INDEX
  VSB - VISIBILITY
$$



USA.gov is the U.S. government's official web portal to all federal, state and local government web resources and services.